PDT,Max TemperatureF,Mean TemperatureF,Min TemperatureF,Max Dew PointF,MeanDew PointF,Min DewpointF,Max Humidity, Mean Humidity, Min Humidity, Max Sea Level PressureIn, Mean Sea Level PressureIn, Min Sea Level PressureIn, Max VisibilityMiles, Mean VisibilityMiles, Min VisibilityMiles, Max Wind SpeedMPH, Mean Wind SpeedMPH, Max Gust SpeedMPH,PrecipitationIn, CloudCover, Events, WindDirDegrees
2012-10-1,95,77,59,61,46,28,72,48,10,30.01,29.95,29.88,10,10,10,13,1,,0.00,0,,328
2012-10-2,96,79,62,57,46,39,64,43,15,29.98,29.85,29.77,10,10,10,8,1,,0.00,0,,360
2012-10-3,82,72,60,59,52,45,82,58,39,30.00,29.88,29.81,20,13,10,12,2,,0.00,0,,302
2012-10-4,71,65,59,55,54,52,88,76,53,30.16,30.07,30.01,20,11,8,13,3,17,0.00,4,,303
2012-10-5,73,65,57,57,54,52,88,76,47,30.17,30.13,30.08,20,10,10,12,4,,0.00,5,,283
2012-10-6,71,64,57,55,51,46,88,73,43,30.09,30.05,29.98,20,10,10,15,4,17,0.00,2,,297
2012-10-7,73,63,53,55,48,46,82,70,41,30.04,30.00,29.95,20,10,2,12,3,,0.00,1,,270
2012-10-8,69,61,53,55,50,46,82,76,49,30.26,30.04,30.01,10,10,10,14,3,18,0.00,1,,289
2012-10-9,68,60,53,55,52,50,88,79,56,30.05,30.01,29.95,10,10,3,13,2,,0.07,4,Rain,312
2012-10-10,71,63,55,55,53,50,94,80,49,29.98,29.95,29.90,10,10,10,10,4,16,0.00,5,Rain,288
2012-10-11,59,58,57,52,50,48,82,76,72,29.99,29.95,29.91,10,10,10,13,5,17,0.00,7,,268
2012-10-12,64,60,55,54,51,48,94,79,56,30.24,30.08,29.97,10,9,3,9,4,,0.00,7,,293
2012-10-13,73,62,51,57,50,46,88,75,44,30.32,30.25,30.19,10,10,10,12,1,,0.00,2,,304
2012-10-14,75,65,55,57,56,55,100,87,53,30.23,30.17,30.09,10,8,1,9,3,,0.00,4,,314
2012-10-15,78,68,57,59,57,50,100,86,39,30.11,30.06,29.97,18,7,0,13,3,,0.00,5,Fog,238
2012-10-16,77,68,59,63,58,54,94,79,57,30.02,29.96,29.89,10,10,4,15,2,20,0.00,1,,298
2012-10-17,86,70,55,55,48,27,94,63,12,29.92,29.89,29.82,10,10,5,6,1,,0.00,0,,344
2012-10-18,86,70,55,63,47,37,83,54,23,30.03,29.94,29.88,10,10,10,16,2,22,0.00,0,,141
2012-10-19,69,64,59,63,59,55,94,87,73,30.06,30.00,29.94,10,10,7,15,3,22,0.00,4,,304
2012-10-20,68,60,53,55,51,45,88,77,49,29.96,29.91,29.85,10,10,10,17,5,24,0.00,3,,240
2012-10-21,62,56,50,48,43,41,82,65,48,29.96,29.90,29.87,10,10,10,16,3,17,0.00,3,Rain,241
2012-10-22,62,58,53,54,49,43,94,77,48,29.95,29.85,29.75,10,8,1,17,7,24,0.01,7,Rain,189
2012-10-23,62,56,50,50,47,43,94,77,52,30.07,30.01,29.95,20,10,2,12,6,16,0.07,5,Rain,210
2012-10-24,64,57,50,50,47,45,94,74,49,30.21,30.11,30.05,10,9,3,10,4,,0.07,7,Rain,165
2012-10-25,64,58,53,54,51,48,94,79,59,30.27,30.22,30.19,10,8,1,10,4,,0.00,5,Rain,331
2012-10-26,73,62,50,52,45,32,87,66,23,30.24,30.19,30.10,10,10,9,7,1,,0.00,0,,310
2012-10-27,77,65,53,57,52,50,94,73,39,30.10,30.04,29.96,10,10,10,9,1,,0.00,0,,330
2012-10-28,80,68,55,59,54,52,94,79,39,30.04,30.00,29.95,10,10,10,8,2,,0.00,1,,323
2012-10-29,69,61,53,59,54,50,100,89,60,30.12,30.07,30.04,10,9,0,9,2,,0.00,2,Fog,280
2012-10-30,66,58,51,57,53,50,100,91,68,30.11,30.05,29.98,10,8,0,12,3,,0.00,4,Fog,307
2012-10-31,64,60,57,57,55,54,94,84,68,30.03,30.00,29.98,10,10,7,14,3,,0.00,8,Rain,191